MST,Max TemperatureF,Mean TemperatureF,Min TemperatureF,Max Dew PointF,MeanDew PointF,Min DewpointF,Max Humidity, Mean Humidity, Min Humidity, Max Sea Level PressureIn, Mean Sea Level PressureIn, Min Sea Level PressureIn, Max VisibilityMiles, Mean VisibilityMiles, Min VisibilityMiles, Max Wind SpeedMPH, Mean Wind SpeedMPH, Max Gust SpeedMPH,PrecipitationIn, CloudCover, Events, WindDirDegrees
2013-2-1,57,35,13,25,18,11,91,56,20,30.22,30.14,29.98,10,10,10,20,5,23,0.00,0,,346
2013-2-2,52,34,15,22,17,13,84,54,24,30.40,30.31,30.22,10,10,10,15,4,20,0.00,0,,329
2013-2-3,44,31,18,24,19,14,84,60,36,30.30,30.07,29.90,10,10,10,12,3,13,0.00,1,,263
2013-2-4,57,37,17,18,12,7,84,49,14,30.10,29.97,29.84,10,10,10,15,4,16,0.00,0,,150
2013-2-5,59,37,15,16,13,10,74,46,17,30.11,29.99,29.89,10,10,10,16,6,21,0.00,0,,135
2013-2-6,65,41,16,37,21,9,92,55,17,30.04,29.86,29.70,10,9,6,24,6,31,0.09,4,Rain,25
2013-2-7,49,37,25,32,26,20,92,63,34,30.19,30.12,29.98,10,10,10,24,6,29,T,3,,72
2013-2-8,60,38,16,25,19,14,88,53,18,30.11,29.90,29.70,10,10,10,31,8,40,0.00,0,,232
2013-2-9,53,38,22,30,24,9,92,56,19,29.66,29.51,29.35,10,8,1,31,12,38,0.05,3,Snow,344
2013-2-10,42,30,17,22,16,12,84,57,29,30.10,29.84,29.52,10,10,7,22,8,26,T,4,Snow,52
2013-2-11,33,26,19,19,16,11,92,69,45,30.18,30.10,30.02,10,9,2,16,6,20,0.01,6,Snow,181
2013-2-12,42,26,9,13,7,-5,84,49,13,30.18,30.12,30.06,10,10,10,18,6,22,0.00,0,,275
2013-2-13,53,31,8,13,8,2,73,46,19,30.13,30.03,29.92,10,10,10,9,2,13,0.00,0,,305
2013-2-14,48,35,21,25,15,10,63,47,31,30.39,30.19,30.03,10,9,1,40,8,45,0.00,4,,38
2013-2-15,47,30,13,18,12,7,84,53,21,30.45,30.36,30.27,10,10,10,28,3,31,0.00,1,,95
2013-2-16,65,38,10,14,7,4,76,43,9,30.34,30.14,29.97,10,10,9,31,8,38,0.00,0,,302
2013-2-17,64,41,17,15,3,-15,54,29,4,29.93,29.74,29.54,10,10,10,32,10,40,0.00,0,,281
2013-2-18,45,32,18,21,13,3,63,45,27,30.19,29.97,29.66,10,10,10,32,10,39,T,2,,77
2013-2-19,41,26,11,15,9,2,67,49,30,30.20,30.03,29.81,10,10,10,8,2,9,0.00,0,,326
2013-2-20,40,32,23,31,25,8,92,69,46,29.80,29.63,29.55,10,6,0,21,8,30,0.17,6,Fog-Snow,341
2013-2-21,34,29,23,22,19,16,81,66,51,29.97,29.76,29.54,10,8,2,29,12,37,T,8,Snow,41
2013-2-22,32,26,19,25,20,15,88,76,63,30.05,29.99,29.91,10,10,7,12,4,16,0.00,5,,130
2013-2-23,52,33,13,22,17,9,96,59,21,29.97,29.75,29.59,10,9,4,17,6,21,0.00,0,,57
2013-2-24,35,27,18,29,24,15,92,77,61,30.12,29.83,29.60,10,5,0,32,15,39,0.15,6,Fog-Snow,16
2013-2-25,42,26,10,18,14,9,92,60,28,30.21,30.05,29.93,10,10,8,23,6,25,0.00,0,,351
2013-2-26,35,26,16,28,21,11,92,75,58,30.13,29.92,29.81,10,7,0,24,7,29,0.01,6,Snow,1
2013-2-27,41,30,19,18,12,6,74,50,25,30.33,30.26,30.19,10,10,10,23,8,28,0.00,1,,345
2013-2-28,48,30,11,14,8,1,84,50,15,30.38,30.29,30.20,10,10,10,16,6,20,0.00,0,,328